Flag for Russia Weather past 2 weeks in Voronezh, Russia

Now
52 °F

Sunny.


Feels Like: 52 °F
Forecast: 34 / 62 °F
Wind: No wind

Location: Voronez

Current Time: Sep 18, 2014 at 10:37:28 AM

Latest Report: Sep 18, 2014 at 10:00 AM


Visibility: 6 mi

Pressure: 30.39 "Hg

Humidity: 50%

Dew point: 34 °F

Location of VoronezhLocation

Historic Weather in Voronezh — Graph

°F

Voronezh temperature yesterday

Maximum temperature yesterday: 59 °F (at 2:00 PM)
Minimum temperature yesterday: 37 °F (at 11:30 PM)
Average temperature yesterday: 49 °F

Past Weeks' High & Low Weather Summary

 TemperatureHumidityPressure
High77 °F (Sep 7, 1:30 PM)94% (Sep 7, 4:00 AM)30.36 "Hg (Sep 7, 4:00 AM)
Low30 °F (Sep 18, 5:30 AM)22% (Sep 11, 2:00 PM)30.01 "Hg (Sep 7, 5:00 PM)
Average59 °F61%30.16 "Hg
* Reported Sep 3 9:00 AM — Sep 18 9:00 AM, Voronezh, Weather by CustomWeather, © 2014

Note: Actual official high and low records may vary slightly from our data, if they occured in-between our weather recording intervals... More about our weather records

Advertising

Voronezh weather history for previous 24 hours

 ConditionsComfort  
Time TempWeatherWind HumidityBarometerVisibility
9:00 AM
Sep 18
43 °FSunny.No wind71%30.36 "Hg6 mi
8:30 AM37 °FSunny.No wind81%30.36 "Hg10 mi
8:00 AM36 °FClear.No wind75%30.36 "Hg10 mi
7:30 AM32 °FClear.No wind87%30.36 "Hg6 mi
7:00 AM30 °FClear.3 mph93%30.33 "Hg10 mi
6:30 AM30 °FClear.3 mph86%30.33 "Hg10 mi
6:00 AM30 °FClear.3 mph86%30.33 "Hg10 mi
5:30 AM30 °FClear.3 mph86%30.33 "Hg10 mi
5:00 AM32 °FClear.No wind87%30.33 "Hg10 mi
4:30 AM32 °FClear.1 mph87%30.33 "Hg10 mi
4:00 AM32 °FClear.No wind93%30.33 "Hg10 mi
3:30 AM32 °FClear.1 mph93%30.33 "Hg10 mi
3:00 AM32 °FClear.No wind93%30.33 "Hg10 mi
2:30 AM34 °FClear.No wind87%30.33 "Hg10 mi
2:00 AM34 °FClear.No wind87%30.33 "Hg10 mi
1:30 AM34 °FClear.No wind81%30.33 "Hg10 mi
1:00 AM36 °FClear.No wind81%30.33 "Hg10 mi
12:30 AM37 °FClear.No wind75%30.33 "Hg10 mi
12:00 AM39 °FClear.No wind70%30.33 "Hg10 mi
11:30 PM
Sep 17
37 °FClear.No wind75%30.30 "Hg10 mi
11:00 PM39 °FClear.No wind70%30.30 "Hg10 mi
10:30 PM39 °FClear.No wind70%30.30 "Hg10 mi
10:11 PM39 °FClear.No wind70%30.30 "Hg10 mi
10:00 PM39 °FClear.1 mph70%30.30 "Hg10 mi
9:30 PM41 °FClear.3 mph66%30.30 "Hg10 mi
9:00 PM41 °FClear.No wind70%30.30 "Hg10 mi
8:30 PM43 °FSunny.3 mph66%30.30 "Hg10 mi
8:00 PM45 °FSunny.1 mph66%30.27 "Hg10 mi
7:30 PM52 °FSunny.3 mph47%30.27 "Hg10 mi
7:00 PM57 °FSunny.3 mph33%30.27 "Hg10 mi
6:30 PM57 °FSunny.3 mph31%30.27 "Hg10 mi
6:00 PM59 °FSunny.3 mph29%30.27 "Hg10 mi
5:30 PM59 °FPassing clouds.6 mph29%30.27 "HgN/A
5:00 PM59 °FPassing clouds.6 mph31%30.27 "HgN/A
4:30 PM59 °FPassing clouds.6 mph29%30.27 "HgN/A
4:00 PM59 °FPassing clouds.8 mph31%30.30 "HgN/A
3:30 PM59 °FPassing clouds.6 mph29%30.30 "HgN/A
3:00 PM59 °FPassing clouds.6 mph29%30.30 "HgN/A
2:30 PM59 °FPassing clouds.8 mph31%30.30 "HgN/A
2:00 PM59 °FPassing clouds.6 mph31%30.30 "HgN/A
1:30 PM57 °FSunny.8 mph33%30.30 "Hg10 mi
1:00 PM57 °FSunny.8 mph36%30.30 "Hg10 mi
12:30 PM57 °FSunny.6 mph36%30.30 "Hg10 mi
12:00 PM57 °FPassing clouds.8 mph36%30.30 "HgN/A
11:30 AM55 °FSunny.10 mph38%30.30 "Hg10 mi
11:00 AM57 °FPassing clouds.6 mph41%30.33 "HgN/A
10:30 AM54 °FSunny.6 mph51%30.33 "Hg10 mi
10:00 AM52 °FSunny.6 mph54%30.30 "Hg10 mi
Weather by CustomWeather, © 2014

See weather overviewHow to use our weather pages